Location: Albuquerque Trailhead
(34.7934°N, 106.3736°W)
Time: 02:16:13
(UTC+00:00)

Cosmos 1634 Rocket - Pass Details

Date: 20 June 2021
Orbit: 960 x 991 km, 82.9° (Epoch: 27 July)

Event Time Altitude Azimuth Distance (km) Brightness Sun altitude
Rises 06:53:08 0° 358° (N) 3,705 8.2 -31.7°
Reaches altitude 10° 06:55:44 10° 3° (N) 2,755 7.2 -31.7°
Enters shadow 07:01:36 56° 68° (ENE) 1,166 4.4 -31.8°
